Temp
74 75 79 79 78 78 78 78 78 78 78 78 78 78 77 77 77 77 77 77 77 78 78 78 77 77 77 78 78 78 78 78 78 78 78 78 75 79 79 80 80 80 79
76 75 78 78 79 79 78 78 78 77 77 77 78 77 77 77 77 77 77 77 77 77 77 77 77 77 77 77 77 77 77 78 77 78 78 78 78 76 79 80 80 78 79
76 75 77 78 78 78 78 78 77 77 77 77 77 77 77 77 77 77 77 77 77 77 77 77 77 77 77 77 77 77 77 77 77 77 78 71 72 79 80 80 80 78 78
75 74 75 78 78 78 78 77 77 77 77 77 77 77 77 77 77 77 77 77 77 77 77 77 77 78 77 77 77 77 77 77 77 77 71 71 71 78 80 80 80 80 78
74 74 74 78 78 78 78 77 77 77 77 77 77 77 77 77 77 77 77 77 77 77 78 78 78 78 78 78 77 77 77 77 76 76 70 67 66 76 80 80 80 79 79
74 75 76 77 78 78 78 77 77 77 77 77 77 77 77 77 77 76 76 77 77 77 78 78 78 78 78 78 77 77 77 76 77 71 70 70 71 75 79 79 80 79 78
74 75 76 77 77 78 78 77 77 77 76 77 77 77 77 77 76 76 76 76 77 77 77 77 77 76 76 76 76 76 76 77 74 70 70 69 70 75 79 79 79 78 78
76 75 75 77 77 77 77 77 77 76 76 76 77 77 77 76 76 76 76 77 77 77 77 77 77 76 76 75 75 75 75 76 76 70 70 69 73 76 79 78 78 78 78
79 76 75 76 76 78 77 77 76 76 76 76 76 76 76 76 76 76 76 76 76 76 76 76 76 76 75 75 75 75 75 76 71 69 71 69 75 77 79 78 78 78 77
78 78 75 75 75 75 75 77 76 76 76 76 76 76 76 76 76 76 75 75 76 76 76 76 76 75 75 74 74 74 75 76 70 68 68 68 75 77 79 77 78 77 77
79 76 75 74 75 75 74 76 76 77 76 76 76 76 74 71 71 72 74 75 76 76 76 76 75 75 75 74 74 74 75 67 67 67 67 72 75 78 80 78 77 77 76
79 76 74 74 74 74 76 74 73 73 73 73 72 71 71 68 67 72 73 75 76 76 76 75 75 75 74 67 66 72 67 66 66 67 66 73 75 77 79 78 77 76 76
81 79 76 74 73 73 75 73 73 72 71 71 70 69 69 69 68 69 66 69 70 74 71 73 71 69 67 65 64 64 66 67 66 67 71 74 75 77 79 78 77 77 76
82 78 77 76 74 72 74 73 72 71 71 70 70 69 68 67 66 65 66 66 66 67 66 65 64 65 65 66 66 65 66 67 67 66 66 74 75 77 79 78 77 76 76
80 79 77 76 74 73 73 73 71 71 71 71 69 68 69 67 66 66 67 65 65 64 64 63 63 64 64 67 66 67 68 69 70 66 67 73 76 76 78 78 76 77 77
80 79 73 75 76 75 74 73 72 71 71 71 70 69 69 69 68 67 65 64 63 64 64 67 67 63 64 65 65 66 67 66 68 68 66 66 75 74 76 77 77 76 77
79 78 73 73 75 74 75 74 73 72 72 71 70 70 70 70 69 68 66 64 64 63 64 65 64 62 62 63 64 65 64 65 66 67 65 65 68 74 75 76 76 76 77
74 76 76 78 72 73 74 73 74 73 72 72 71 70 71 71 70 66 65 64 64 63 63 62 62 61 61 61 61 61 61 62 64 65 66 65 66 67 73 75 75 75 76
74 76 74 73 70 71 69 71 73 71 72 68 69 69 70 70 69 66 64 64 64 63 62 62 61 61 60 59 60 60 60 61 63 66 66 66 65 65 66 71 73 74 75
73 73 71 71 68 67 69 67 67 67 66 68 68 67 69 69 69 65 65 64 64 62 61 61 60 60 60 59 61 62 60 61 61 62 63 66 65 66 66 66 67 69 73
71 71 69 68 67 69 70 67 66 65 65 65 65 69 68 67 67 65 64 63 63 62 61 61 60 60 60 59 58 57 59 61 61 61 61 62 65 66 65 64 64 65 68
71 69 67 67 68 68 68 66 66 66 65 66 67 68 69 68 67 66 64 63 63 61 61 60 60 58 58 58 56 57 55 58 59 60 60 61 61 63 65 66 65 65 65
68 67 67 67 67 67 67 68 65 66 65 64 63 63 65 68 67 66 64 63 62 61 60 59 59 58 56 56 57 54 51 53 56 58 59 60 61 60 62 64 64 65 64
65 66 66 67 67 68 67 67 68 63 62 62 63 63 64 67 66 66 64 63 62 61 60 59 60 58 57 56 57 59 57 56 52 52 57 59 60 60 61 62 63 63 64
65 65 66 66 66 66 67 68 65 62 62 62 62 62 63 64 65 66 64 63 61 60 60 60 60 59 58 57 56 55 56 56 56 53 52 55 58 58 60 61 62 64 64
65 66 66 65 64 66 66 65 64 64 61 60 61 61 61 61 62 64 64 62 61 60 60 60 60 59 58 58 58 58 56 54 53 54 51 53 54 57 59 61 61 62 61
MSLP
1008.54 1008.55 1008.98 1009.39 1009.70 1010.00 1010.21 1010.45 1010.67 1011.02 1011.33 1011.63 1012.02 1012.33 1012.57 1012.80 1013.03 1013.26 1013.42 1013.60 1013.70 1013.76 1013.86 1013.94 1013.95 1014.03 1014.02 1014.00 1014.02 1014.12 1014.22 1014.14 1014.09 1014.03 1013.90 1013.80 1013.97 1013.65 1013.60 1013.59 1013.70 1013.88 1013.81
1007.00 1008.18 1008.78 1009.31 1009.60 1009.93 1010.15 1010.41 1010.60 1011.04 1011.39 1011.66 1011.94 1012.29 1012.68 1012.84 1012.98 1013.28 1013.53 1013.62 1013.70 1013.82 1013.84 1013.89 1014.00 1014.12 1014.03 1013.97 1014.01 1014.09 1014.19 1014.29 1014.23 1014.07 1013.96 1013.79 1013.97 1013.98 1013.66 1013.58 1013.61 1013.77 1014.01
1007.14 1007.94 1008.61 1009.02 1009.37 1009.64 1010.05 1010.25 1010.50 1010.91 1011.37 1011.68 1011.88 1012.18 1012.50 1012.70 1012.88 1013.06 1013.34 1013.56 1013.65 1013.79 1013.80 1013.85 1013.90 1014.06 1014.03 1013.95 1013.99 1014.06 1014.12 1014.17 1014.18 1014.08 1013.89 1013.96 1013.95 1013.90 1013.80 1013.66 1013.64 1013.72 1013.81
1006.89 1007.73 1008.33 1008.82 1009.23 1009.59 1009.91 1010.13 1010.47 1010.83 1011.21 1011.53 1011.71 1012.01 1012.21 1012.52 1012.69 1012.79 1013.08 1013.31 1013.50 1013.59 1013.64 1013.69 1013.80 1013.93 1013.87 1013.87 1013.94 1013.95 1013.99 1014.03 1014.00 1014.01 1014.10 1013.98 1013.98 1013.65 1013.64 1013.62 1013.60 1013.60 1013.82
1007.22 1007.76 1008.15 1008.58 1009.02 1009.34 1009.71 1010.01 1010.30 1010.64 1010.97 1011.25 1011.38 1011.65 1011.84 1012.10 1012.29 1012.51 1012.85 1013.07 1013.26 1013.30 1013.36 1013.48 1013.60 1013.69 1013.66 1013.66 1013.75 1013.87 1013.91 1013.96 1013.90 1013.92 1013.99 1014.02 1013.92 1013.69 1013.29 1013.09 1013.48 1013.59 1013.83
1007.25 1007.52 1007.63 1007.89 1008.48 1008.88 1009.22 1009.53 1009.87 1010.24 1010.59 1010.84 1010.96 1011.20 1011.43 1011.68 1011.96 1012.13 1012.58 1012.82 1013.05 1013.16 1013.12 1013.16 1013.29 1013.35 1013.44 1013.45 1013.50 1013.61 1013.68 1013.74 1013.77 1013.83 1013.93 1013.86 1013.78 1013.41 1013.09 1012.79 1013.24 1013.40 1013.86
1006.83 1007.02 1007.12 1007.32 1007.67 1008.18 1008.59 1008.83 1009.04 1009.50 1009.96 1010.25 1010.58 1010.92 1011.10 1011.37 1011.73 1011.93 1012.20 1012.44 1012.69 1012.79 1012.98 1013.04 1013.06 1013.13 1013.20 1013.31 1013.36 1013.38 1013.45 1013.47 1013.53 1013.66 1013.72 1013.70 1013.59 1013.21 1012.88 1012.84 1013.16 1013.36 1013.71
1005.73 1006.44 1006.78 1007.11 1007.46 1007.75 1007.98 1008.17 1008.43 1008.77 1009.25 1009.77 1010.24 1010.54 1010.83 1011.17 1011.54 1011.79 1011.99 1012.17 1012.43 1012.65 1012.64 1012.79 1012.88 1012.97 1013.06 1013.14 1013.21 1013.27 1013.23 1013.23 1013.26 1013.44 1013.48 1013.54 1013.41 1012.99 1012.82 1012.87 1013.00 1013.26 1013.48
1005.44 1006.01 1006.48 1006.96 1007.32 1007.37 1007.59 1007.98 1008.29 1008.61 1009.00 1009.43 1009.85 1010.30 1010.56 1010.95 1011.24 1011.56 1011.81 1012.13 1012.30 1012.41 1012.52 1012.57 1012.68 1012.76 1012.91 1012.99 1013.02 1013.06 1013.09 1013.06 1013.13 1013.30 1013.31 1013.31 1013.15 1013.06 1012.84 1012.91 1012.76 1012.97 1013.29
1005.24 1005.61 1006.07 1006.55 1007.02 1007.21 1007.24 1007.54 1007.93 1008.21 1008.88 1009.34 1009.74 1009.80 1010.29 1010.68 1010.90 1011.25 1011.58 1011.86 1012.09 1012.19 1012.27 1012.31 1012.44 1012.58 1012.76 1012.85 1012.87 1012.92 1012.90 1012.84 1012.91 1013.10 1013.14 1013.03 1012.92 1012.86 1012.70 1012.75 1012.74 1012.89 1013.24
1005.44 1005.47 1005.95 1006.33 1006.68 1006.87 1006.89 1007.02 1007.58 1007.89 1008.34 1008.93 1009.54 1009.65 1009.91 1010.40 1010.63 1010.98 1011.20 1011.62 1011.90 1011.93 1012.06 1012.07 1012.21 1012.42 1012.57 1012.60 1012.70 1012.76 1012.78 1012.77 1012.85 1012.93 1012.94 1012.70 1012.71 1012.58 1012.34 1012.62 1012.78 1012.92 1013.09
1004.65 1004.75 1005.33 1005.67 1006.12 1006.37 1006.55 1006.83 1007.32 1007.73 1008.05 1008.56 1009.06 1009.48 1009.61 1009.99 1010.40 1010.61 1010.95 1011.20 1011.39 1011.60 1011.76 1011.84 1012.02 1012.25 1012.37 1012.43 1012.60 1012.56 1012.65 1012.72 1012.70 1012.66 1012.66 1012.48 1012.50 1012.41 1012.14 1012.29 1012.49 1012.61 1012.89
1003.40 1003.95 1004.43 1004.84 1005.21 1005.85 1006.24 1006.44 1006.90 1007.26 1007.64 1007.97 1008.45 1008.88 1009.23 1009.62 1010.11 1010.42 1010.64 1010.89 1010.97 1011.02 1011.49 1011.62 1011.90 1012.06 1012.17 1012.23 1012.43 1012.56 1012.45 1012.45 1012.42 1012.36 1012.29 1012.22 1012.25 1012.16 1011.92 1012.08 1012.28 1012.28 1012.75
1002.30 1002.90 1003.20 1003.70 1004.40 1004.93 1005.77 1005.95 1006.48 1006.83 1007.11 1007.52 1007.76 1008.32 1008.90 1009.44 1009.89 1010.24 1010.33 1010.47 1010.61 1010.79 1011.08 1011.47 1011.81 1011.97 1012.12 1012.03 1012.15 1012.23 1012.21 1012.10 1011.95 1012.04 1012.02 1011.78 1011.85 1011.85 1011.86 1011.95 1012.10 1012.25 1012.45
1001.85 1001.70 1002.18 1002.83 1003.43 1004.21 1004.86 1005.33 1005.76 1005.89 1006.26 1006.76 1007.38 1007.83 1008.28 1008.97 1009.32 1009.69 1009.83 1009.98 1010.25 1010.58 1010.88 1011.39 1011.64 1011.86 1011.90 1011.74 1011.80 1011.86 1011.76 1011.55 1011.48 1011.59 1011.59 1011.45 1011.20 1011.29 1011.53 1011.82 1012.22 1012.28 1012.39
1001.23 1001.01 1001.55 1002.00 1002.31 1003.25 1003.70 1004.13 1004.53 1005.12 1005.47 1006.00 1006.64 1007.14 1007.61 1008.25 1008.81 1009.13 1009.30 1009.56 1010.02 1010.19 1010.40 1010.71 1011.06 1011.32 1011.46 1011.49 1011.64 1011.58 1011.53 1011.45 1011.30 1011.21 1011.13 1011.17 1010.89 1010.87 1011.30 1011.73 1012.02 1012.15 1012.25
1000.46 1000.22 1000.77 1000.92 1001.48 1002.35 1002.56 1002.96 1003.70 1004.19 1004.74 1005.40 1005.94 1006.52 1007.02 1007.68 1008.10 1008.30 1008.75 1009.17 1009.50 1009.75 1010.02 1010.49 1010.86 1011.06 1011.26 1011.42 1011.50 1011.35 1011.36 1011.25 1011.10 1010.99 1010.96 1010.95 1010.93 1010.87 1011.07 1011.38 1011.69 1011.93 1012.18
999.95 1000.14 999.98 1000.31 1000.89 1001.41 1001.91 1002.47 1003.06 1003.52 1004.10 1004.82 1005.46 1005.95 1006.52 1007.03 1007.39 1007.93 1008.40 1008.78 1008.98 1009.45 1010.04 1010.53 1010.76 1011.03 1011.14 1011.18 1011.20 1011.10 1011.08 1011.04 1010.84 1010.68 1010.75 1010.79 1010.78 1010.85 1010.95 1011.19 1011.52 1011.80 1012.04
999.04 999.13 999.74 1000.04 1000.35 1000.77 1001.38 1002.03 1002.40 1002.89 1003.59 1004.27 1005.04 1005.63 1006.08 1006.59 1007.15 1007.76 1008.12 1008.59 1008.69 1009.29 1009.77 1010.11 1010.38 1010.63 1010.90 1010.95 1011.03 1011.05 1010.92 1010.81 1010.66 1010.59 1010.66 1010.60 1010.66 1010.87 1011.03 1011.23 1011.36 1011.56 1011.88
998.42 998.78 999.33 999.61 1000.04 1000.66 1001.28 1002.03 1002.44 1003.03 1003.61 1004.10 1004.74 1005.34 1005.83 1006.27 1006.85 1007.66 1007.94 1008.30 1008.61 1009.19 1009.64 1009.91 1010.13 1010.34 1010.40 1010.58 1010.82 1010.90 1010.78 1010.60 1010.47 1010.57 1010.52 1010.41 1010.48 1010.61 1010.80 1011.11 1011.27 1011.45 1011.74
998.28 998.72 998.83 999.30 999.99 1000.45 1001.38 1001.93 1002.58 1003.13 1003.76 1004.20 1004.56 1005.09 1005.78 1006.30 1006.82 1007.46 1007.64 1007.99 1008.44 1008.91 1009.19 1009.51 1009.74 1009.95 1010.08 1010.44 1010.78 1010.84 1010.76 1010.61 1010.43 1010.33 1010.40 1010.49 1010.53 1010.52 1010.67 1010.99 1011.13 1011.32 1011.49
997.96 998.38 998.78 999.09 999.41 1000.03 1000.68 1001.54 1002.23 1003.09 1003.86 1004.14 1004.69 1005.13 1005.51 1006.13 1006.65 1007.04 1007.31 1007.76 1008.19 1008.74 1009.05 1009.30 1009.54 1009.81 1010.04 1010.24 1010.59 1010.83 1010.89 1010.71 1010.40 1010.23 1010.21 1010.30 1010.37 1010.55 1010.66 1010.56 1010.85 1011.15 1011.41
998.02 998.39 998.75 999.06 999.54 999.84 1000.61 1001.58 1002.50 1003.26 1003.99 1004.53 1004.91 1005.31 1005.60 1005.82 1006.33 1006.67 1007.06 1007.50 1008.02 1008.36 1008.72 1008.95 1009.14 1009.47 1009.89 1010.11 1010.08 1010.44 1010.86 1010.77 1010.60 1010.18 1010.16 1010.11 1010.21 1010.25 1010.44 1010.61 1010.66 1010.83 1011.14
997.94 998.44 998.84 999.33 1000.06 1000.15 1000.52 1001.61 1002.47 1003.47 1004.24 1004.43 1004.71 1005.03 1005.50 1005.85 1006.27 1006.62 1006.92 1007.30 1007.68 1008.05 1008.39 1008.59 1008.81 1009.13 1009.54 1009.94 1010.19 1010.14 1010.28 1010.46 1010.69 1010.55 1010.32 1010.20 1010.15 1010.43 1010.50 1010.63 1010.87 1011.05 1011.20
998.18 998.54 999.05 999.65 1000.29 1000.75 1000.95 1001.73 1002.65 1003.55 1003.98 1004.30 1004.77 1005.27 1005.66 1006.07 1006.32 1006.49 1006.81 1007.21 1007.52 1007.91 1008.11 1008.34 1008.58 1008.90 1009.11 1009.41 1009.73 1009.94 1010.19 1010.32 1010.48 1010.76 1010.71 1010.60 1010.64 1010.62 1010.55 1010.57 1010.74 1011.02 1011.20
998.39 998.80 999.34 1000.03 1000.89 1001.06 1001.49 1002.21 1002.84 1003.42 1004.15 1004.72 1005.13 1005.56 1006.01 1006.24 1006.36 1006.55 1006.87 1007.07 1007.41 1007.65 1007.85 1008.05 1008.22 1008.47 1008.67 1008.94 1009.18 1009.41 1009.58 1009.95 1010.25 1010.56 1010.78 1010.86 1010.86 1011.09 1011.03 1011.00 1011.01 1011.28 1011.44
Wind_Speed
7 14 21 20 19 18 18 19 19 18 17 17 16 14 14 13 12 11 10 9 8 7 6 5 4 3 2 2 2 2 3 3 4 4 5 5 6 8 4 8 12 10 12
15 15 21 20 19 19 18 18 18 17 16 16 17 15 14 13 12 11 10 9 8 6 5 4 3 2 1 1 1 1 2 3 3 4 5 5 5 7 7 6 7 11 11
16 15 17 20 20 19 18 18 18 18 17 16 16 16 15 13 13 11 10 9 7 6 5 4 3 3 2 2 2 2 3 3 4 6 6 4 5 6 6 6 6 10 12
17 14 14 20 19 19 18 18 18 18 17 17 17 17 16 15 14 13 11 10 8 7 6 5 5 6 5 5 4 4 4 4 5 7 3 5 5 9 10 9 8 9 11
14 12 13 20 20 20 19 19 18 18 18 18 18 18 18 16 15 14 12 12 11 9 8 7 7 8 8 8 7 7 6 5 5 6 5 4 4 9 14 13 10 9 11
13 14 18 23 22 21 21 21 20 19 19 19 19 19 18 17 16 15 14 13 11 10 10 10 10 10 10 9 8 8 10 8 7 4 5 5 6 10 9 10 10 9 11
14 14 17 25 25 24 24 23 23 22 22 21 20 19 19 17 16 16 15 14 12 12 11 11 10 7 7 8 9 10 9 11 6 5 5 5 5 13 9 9 10 10 11
18 16 15 23 24 24 24 24 24 24 23 22 20 19 18 17 16 15 15 14 13 13 12 12 11 9 8 8 9 9 11 11 7 5 5 4 7 11 9 11 11 10 11
14 15 14 16 20 25 24 23 23 22 22 21 21 19 18 17 16 15 14 13 14 13 12 12 11 11 10 10 11 11 11 13 6 4 6 3 7 8 9 11 12 11 11
12 14 14 15 16 16 16 24 24 23 22 21 21 20 18 17 16 15 13 13 14 13 14 13 13 11 11 10 11 12 12 13 5 5 4 4 10 11 12 14 13 11 10
7 9 11 13 15 15 14 16 22 23 22 21 20 19 15 7 8 10 12 13 15 14 14 14 13 11 11 12 11 12 14 3 5 3 3 13 12 13 11 12 12 11 11
15 12 12 13 13 13 11 12 14 12 11 12 12 11 9 8 6 9 10 16 16 16 16 15 14 13 12 3 3 9 3 5 4 4 4 15 13 13 13 14 13 12 12
17 11 17 15 15 13 12 9 7 7 7 8 11 10 9 7 6 5 4 4 5 14 6 9 6 5 5 4 4 4 5 5 4 4 8 16 14 14 16 15 13 13 13
9 15 16 17 15 15 9 9 9 9 8 8 10 11 8 6 6 5 4 5 4 4 5 5 3 4 5 5 5 6 6 6 5 4 6 16 14 14 16 15 13 12 11
8 8 16 17 16 14 13 9 10 11 10 10 9 10 9 8 7 6 6 4 4 4 4 4 4 4 5 6 5 6 5 7 6 4 4 14 10 16 17 14 14 14 12
11 10 10 16 17 15 16 14 12 11 11 10 9 10 13 8 7 7 5 5 4 5 5 6 6 5 5 4 5 6 6 5 6 5 5 4 9 9 15 14 15 15 14
11 10 12 16 15 16 19 15 11 10 10 10 9 11 13 10 10 9 5 5 5 5 5 3 3 4 4 3 6 5 4 5 5 5 4 4 4 9 12 15 15 14 15
9 10 11 9 14 15 14 11 10 10 9 9 8 8 12 12 10 6 5 4 5 4 4 4 4 4 4 4 3 4 4 4 6 6 4 4 4 4 8 12 12 12 14
11 11 8 9 12 14 9 9 10 10 8 6 6 7 11 10 8 6 5 5 5 4 4 4 4 3 3 3 4 4 4 4 4 2 5 5 6 5 4 8 13 11 12
8 8 4 6 7 7 7 5 4 5 5 6 7 6 10 8 8 6 5 5 5 4 4 3 5 4 3 3 3 3 4 4 3 3 4 3 5 5 5 5 4 6 11
7 9 10 11 9 9 8 6 5 5 4 4 5 10 8 6 6 7 5 5 5 6 6 6 3 5 3 3 2 2 2 4 4 4 3 4 4 5 5 5 4 4 5
9 7 8 7 11 7 5 4 4 5 2 4 5 7 11 11 8 7 6 5 5 3 5 4 4 2 2 4 3 2 2 2 3 4 3 4 5 3 4 5 5 5 5
10 10 8 9 9 8 8 7 5 5 4 3 2 3 4 7 7 7 7 5 5 4 3 4 4 5 4 3 4 4 1 3 2 1 5 4 4 1 2 5 5 5 5
8 7 9 10 8 8 10 8 10 5 4 3 3 3 4 6 6 6 6 5 5 3 4 4 4 3 3 3 1 4 2 3 2 2 2 1 2 4 3 3 4 3 4
8 8 8 9 8 7 9 10 7 5 3 3 3 6 5 4 5 6 6 5 5 4 4 5 4 5 4 4 3 2 2 2 1 2 2 1 1 2 2 3 4 3 3
8 9 10 10 7 8 8 8 9 9 6 6 4 5 4 3 3 4 5 4 4 4 4 4 4 6 5 4 3 3 4 4 4 3 2 0 3 2 2 2 4 3 3
Wind_Direction
203 170 172 167 160 156 150 148 143 143 142 139 138 134 133 132 131 130 129 126 126 127 127 120 112 106 92 72 59 26 1 2 359 7 1 1 318 331 209 162 153 146 141
145 166 170 165 161 159 155 153 150 149 148 145 144 143 145 144 144 144 144 145 144 145 139 136 142 165 163 132 7 337 328 331 336 334 322 326 326 290 295 189 201 154 144
149 160 166 166 164 162 160 159 157 154 152 152 151 152 155 157 156 155 156 158 161 166 166 174 184 215 231 229 234 257 282 299 311 310 309 329 311 296 280 249 196 170 154
151 159 165 167 166 166 167 164 162 159 158 161 160 163 165 167 168 167 170 174 182 187 190 203 218 229 231 236 240 241 258 277 292 296 308 298 306 301 295 227 200 180 173
147 159 164 170 171 172 172 170 166 166 166 169 169 173 172 174 175 175 179 185 193 199 206 219 233 239 240 240 237 236 232 241 263 283 289 289 294 292 296 242 189 185 177
155 167 174 173 175 177 177 174 172 172 175 178 179 180 179 179 182 179 186 192 199 207 214 224 236 244 247 247 252 252 241 239 250 260 279 287 291 289 284 134 167 177 185
170 178 178 179 179 181 181 179 177 178 182 185 186 187 185 184 186 186 190 196 205 211 223 231 242 238 247 252 258 261 247 246 232 248 262 275 293 295 233 152 159 168 186
169 181 185 184 184 186 185 184 183 182 186 188 191 191 190 190 191 194 198 202 209 217 221 235 239 236 237 245 257 261 253 235 238 233 260 277 284 287 180 165 158 172 180
175 175 183 186 193 189 189 189 190 189 189 191 193 195 193 195 194 202 204 210 216 221 230 232 239 236 237 242 250 254 256 239 225 241 263 252 271 283 206 186 169 173 181
179 183 178 186 193 196 193 193 193 191 195 196 199 194 197 199 199 202 208 216 222 224 232 227 236 241 239 243 250 251 248 242 238 229 247 256 263 266 237 202 180 176 186
189 185 183 186 195 200 197 197 197 197 194 198 203 200 194 196 197 201 211 219 229 228 229 228 234 239 246 251 250 251 250 238 239 238 240 260 264 262 225 207 193 184 183
205 193 187 188 197 197 198 194 197 197 197 196 201 202 193 187 183 196 209 230 231 230 227 227 231 235 250 234 246 256 239 231 230 232 237 258 260 260 220 206 189 187 183
207 189 193 189 193 190 200 187 191 191 193 196 197 190 191 185 194 200 199 221 227 228 220 227 232 226 226 228 232 233 242 224 227 232 243 252 255 259 228 207 201 187 190
217 192 193 194 190 192 190 188 191 191 193 197 198 188 184 185 187 204 202 210 201 194 193 193 210 227 241 234 231 232 233 229 221 223 241 252 247 250 224 216 209 198 197
236 197 191 188 189 191 191 187 192 195 194 196 194 190 186 191 188 198 208 191 192 177 181 201 213 213 225 229 242 242 241 217 215 210 225 243 255 228 213 217 217 209 212
237 243 176 189 191 184 193 190 191 192 193 188 191 194 191 189 185 199 190 186 191 183 189 208 211 207 214 203 237 246 243 240 238 221 235 239 260 221 203 195 224 223 218
228 224 184 191 186 188 196 195 188 189 180 186 187 187 186 182 196 193 181 182 185 183 175 181 194 179 190 211 237 249 259 253 249 221 229 231 236 196 191 206 216 223 222
221 212 209 176 182 192 195 187 185 182 178 181 180 176 179 191 194 170 160 172 180 166 169 178 180 201 220 210 234 252 262 278 249 234 221 211 202 208 212 215 224 223 221
215 202 209 193 182 189 177 177 178 169 172 160 162 167 176 184 166 155 161 185 170 166 173 179 197 200 222 231 227 248 258 259 249 217 208 214 209 206 203 231 220 209 217
203 219 188 202 158 150 138 123 113 120 126 144 160 161 163 164 162 161 171 172 152 146 176 192 217 225 197 209 232 245 257 250 260 228 225 225 221 200 204 210 218 207 204
191 184 173 161 164 145 154 140 126 142 129 117 139 145 154 162 193 200 192 166 166 174 193 211 224 207 215 210 95 297 274 258 257 249 226 227 226 216 214 191 192 192 200
172 180 166 164 155 149 131 117 117 125 119 135 154 166 169 174 185 176 171 181 177 180 218 215 182 166 209 173 157 147 229 300 258 237 235 243 229 194 217 218 193 180 173
174 179 162 149 142 124 116 106 82 71 65 82 97 122 185 168 165 160 172 167 184 190 202 186 182 171 182 214 204 144 120 229 324 338 227 232 251 240 203 205 185 177 173
174 141 133 131 126 124 122 113 132 138 146 192 161 140 146 150 150 157 154 163 175 175 181 192 187 174 151 189 190 236 113 150 142 345 339 232 235 179 162 166 160 158 177
139 135 118 117 120 131 122 135 131 128 151 131 101 118 119 128 147 146 146 163 175 172 188 191 183 195 187 171 173 155 169 198 93 131 226 113 13 42 64 153 146 158 139
127 123 122 120 129 126 119 133 135 136 131 110 109 118 127 124 132 152 175 175 175 181 190 196 203 201 203 194 188 195 177 169 173 170 132 179 128 17 64 99 106 133 141